Regional Weather Roundup
Issued by NWS

Home | Current Version | Previous Version | Text Only | Print | Product List | Glossary Off
Versions: 1 2 3 4 5 6 7 8 9 10 11 12 13 14 15 16 17 18 19 20 21 22 23 24 25 26 27 28 29 30 31 32 33 34 35 36 37 38 39 40 41 42 43 44 45 46 47 48 49 50

955
ASUS43 KMPX 182201
RWRMN
WEATHER ROUNDUP FOR MINNESOTA
NATIONAL WEATHER SERVICE TWIN CITIES/CHANHASSEN MN
500 PM CDT WED OCT 18 2017


NOTE: "FAIR" INDICATES FEW OR NO CLOUDS BELOW 12,000 FEET WITH NO
SIGNIFICANT WEATHER AND/OR OBSTRUCTIONS TO VISIBILITY. N/A MEANS
CURRENT SKY AND/OR WEATHER CONDITIONS ARE NOT AVAILABLE.

MNZ060>063-068>070-182300-
   Twin Cities Metro

CITY           SKY/WX    TMP DP  RH WIND       PRES   REMARKS
TWIN CITIES    PTSUNNY   71  30  21 W20G28    29.87R
ST PAUL        SUNNY     70  27  20 W14G31    29.86R
CRYSTAL        SUNNY     70  24  17 W16G23    29.85R
BLAINE         PTSUNNY   72  30  21 W16       29.85R
LAKEVILLE      SUNNY     68  36  30 W7        29.88R
EDEN PRAIRIE   SUNNY     70  25  18 W18G25    29.87R
SOUTH ST PAUL  SUNNY     71  26  19 W13       29.85R
LAKE ELMO      FAIR      70  43  37 W8        29.86R
$$
MNZ001>005-007-008-013>017-022>024-027-028-182300-
   Northwest Minnesota

CITY           SKY/WX    TMP DP  RH WIND       PRES   REMARKS
BEMIDJI        SUNNY     56  16  20 W24G32    29.80R
HALLOCK        SUNNY     61  -2   8 W32G44    29.72S
ROSEAU         SUNNY     59   7  12 W28G37    29.69R
WARROAD        SUNNY     57  19  23 W25G38    29.68R
CROOKSTON      SUNNY     59  14  17 W29G36    29.82S
FOSSTON        SUNNY     57  10  15 W28G37    29.83R
DETROIT LAKES  CLOUDY    57  14  18 W20G26    29.89R
MOORHEAD       CLOUDY    59  10  14 W17G26    29.90S
PARK RAPIDS    LGT RAIN  59  17  19 W16G33    29.84R
MAHNOMEN       FAIR      58  15  18 W21       29.85R
$$
MNZ006-009>011-018-025>026-182300-
   North Central Minnesota

CITY           SKY/WX    TMP DP  RH WIND       PRES   REMARKS
BAUDETTE       SUNNY     58   9  14 W24G46    29.67R
FLAG ISLAND    SUNNY     55  16  21 W26G40    29.59S
INTL FALLS     SUNNY     59  12  15 W16G32    29.66R
WASKISH        SUNNY     55  30  38 W21G30    29.74R
BIG FORK       SUNNY     61  12  15 W13G24    29.74R
LONGVILLE      SUNNY     61  12  15 W13G22    29.80R
GRAND RAPIDS   SUNNY     60  18  19 W12       29.79R
CRANE LAKE     SUNNY     57  16  19 SW13G26   29.68R
ORR            SUNNY     57  10  15 W20G29    29.68R
COOK           SUNNY     59  16  18 W16G32    29.71R
WALKER         FAIR      58  11  15 W17G32    29.80R
$$
MNZ012-019>021-037-182300-
   Northeast Minnesota

CITY           SKY/WX    TMP DP  RH WIND       PRES   REMARKS
DULUTH         SUNNY     62  15  16 W21G30    29.74R
ELY            SUNNY     57   9  14 W12G25    29.68R
HIBBING        SUNNY     58  17  20 W12G23    29.74R
EVELETH        SUNNY     60 -13   5 W18G31    29.73R
DULUTH HARBOR  SUNNY     66  21  18 W22       29.73R
TWO HARBORS    SUNNY     68  32  26 W16G25    29.69R
SILVER BAY     SUNNY     64  18  16 W12G23    29.67R
GRAND MARAIS     N/A     66  30  26 W14G23    29.59R
G MARAIS ARPRT CLEAR     61  21  21 SW9G17    29.63R
$$
MNZ029>031-032-039>041-046>048-054>057-064-182300-
   West Central Minnesota

CITY           SKY/WX    TMP DP  RH WIND       PRES   REMARKS
FERGUS FALLS   CLOUDY    57  23  26 W21       29.92R
WHEATON        MOSUNNY   59  19  21 W12G17    29.97R
MORRIS         PTSUNNY   59  27  29 W17       29.94S
ALEXANDRIA     CLOUDY    58  23  26 W17G25    29.93R
ELBOW LAKE     FAIR      57  23  26 NW15G25   29.93R
WADENA         CLOUDY    59  19  21 W15G28    29.87R
GLENWOOD       CLOUDY    57  25  28 W14G20    29.93R
APPLETON       PTSUNNY   61  23  23 W13       29.96R
BENSON         MOSUNNY   61  25  25 NW16      29.96S
ORTONVILLE     MOSUNNY   59  27  29 NW9G17    29.97S
MADISON        CLOUDY    63  25  23 NW14G20   29.97R
WILLMAR        FAIR      61  25  25 NW9       29.95R
$$
MNZ033>034-036-042>043-049>051-058-059-182300-
   Central Minnesota

CITY           SKY/WX    TMP DP  RH WIND       PRES   REMARKS
ST CLOUD       SUNNY     63  17  17 W20G30    29.87R
SAUK CENTRE    FAIR      58  25  28 W14G23    29.91S
PAYNESVILLE    CLOUDY    60  23  24 W15       29.92S
AITKIN         SUNNY     61  19  20 W12G20    29.80R
PINE RIVER     SUNNY     57  25  28 W10       29.86R
BRAINERD       SUNNY     60  17  18 W17       29.85R
STAPLES        CLOUDY    57  18  21 W16G23    29.86S
LONG PRAIRIE   FAIR      57  23  26 W14G24    29.90S
LITTLE FALLS   SUNNY     61   3  10 W16       29.88R
LITCHFIELD     SUNNY     63  27  25 W13G23    29.92R
BUFFALO        MOSUNNY   65  26  22 W17G24    29.89R
MAPLE LAKE     SUNNY     65  25  22 W15G24    29.90R
HUTCHINSON     SUNNY     66  31  26 W8        29.92R
$$
MNZ037-044-045-052-053-182300-
   East Central Minnesota

CITY           SKY/WX    TMP DP  RH WIND       PRES   REMARKS
PRINCETON      SUNNY     66  23  19 W17G23    29.85S
MORA           SUNNY     63  19  19 W17G24    29.84S
CAMBRIDGE      SUNNY     68  39  34 W16G24    29.84R
RUSH CITY      SUNNY     65  18  16 W14G21    29.83R
MOOSE LAKE     SUNNY     64  25  22 W12G17    29.77R
HINCKLEY       FAIR      64  28  25 W10G21    29.80S
CLOQUET        SUNNY     64  12  13 W17G24    29.76R
MCGREGOR       SUNNY     63  18  17 W14G26    29.79S
$$
MNZ071>073-080-081-089-090-097-098-182300-
   Southwest Minnesota

CITY           SKY/WX    TMP DP  RH WIND       PRES   REMARKS
MONTEVIDEO     PTSUNNY   63  21  20 N10G22    29.96R
GRANITE FALLS  CLOUDY    65  26  23 NW13G20   29.98R
CANBY          MOSUNNY   65  25  21 W10G17    29.99R
MARSHALL       CLOUDY    66  26  22 NW15      29.97R
REDWOOD FALLS  CLOUDY    68  26  20 NW8       29.94R
OLIVIA         CLOUDY    64  32  29 NW13G20   29.93R
PIPESTONE      SUNNY     66  27  22 N9        29.99R
WORTHINGTON    SUNNY     69  34  27 N10       29.98R
JACKSON        SUNNY     68  32  26 NW18      29.96R
TRACY          CLOUDY    67  29  24 NW14G20   29.98R
SLAYTON        MOSUNNY  N/A N/A N/A NW13      29.99R
$$
MNZ065>067-074>077-082>085-091>093-182300-
   South Central Minnesota

CITY           SKY/WX    TMP DP  RH WIND       PRES   REMARKS
MANKATO        SUNNY     70  31  23 NW16      29.92R
NEW ULM        MOSUNNY   66  30  26 NW9       29.93R
ST JAMES       SUNNY     70  32  24 NW12      29.95R
FAIRMONT       SUNNY     72  35  25 NW14      29.94R
GLENCOE        CLOUDY    68  29  23 W12       29.91R
FARIBAULT      SUNNY     70  39  32 W8        29.90R
OWATONNA       SUNNY     72  43  35 W8        29.90R
WASECA         SUNNY     72  37  28 W9        29.92R
$$
MNZ078>079-086>088-094>096-182300-
   Southeast Minnesota

CITY           SKY/WX    TMP DP  RH WIND       PRES   REMARKS
ROCHESTER      SUNNY     68  48  48 W12       29.90S
RED WING       SUNNY     72  37  28 W6        29.86R
STANTON        SUNNY     71  37  29 W12G17    29.88R
DODGE CENTER   SUNNY     70  43  37 W8        29.90R
WINONA         SUNNY     73  48  40 W9        29.87R
AUSTIN         SUNNY     70  46  43 SW5       29.90S
PRESTON        SUNNY     70  47  45 W14       29.90S
$$
ABBREVIATIONS USED IN REMARKS
   TC - TEMPERATURES IN CELSIUS
  WCI - WIND CHILL INDEX
   HX - HEAT INDEX
  VSB - VISIBILITY
$$




USA.gov is the U.S. government's official web portal to all federal, state and local government web resources and services.